This is the latest recevied weather packets stored in our database for station/object PY2UEP-1. If no packets are shown the sender has not sent any weather packets the latest 10 day(s).
| Time | Temp. | Humidity | Pressure | Rain* | Wind** | Luminosity | Snow |
|---|---|---|---|---|---|---|---|
| 1777571438 | 27.78° C | 57% | 1016.8 hPa | 12.95 mm | - | - | - |
| 1777571138 | 28.33° C | 57% | 1016.9 hPa | 12.95 mm | - | - | - |
| 1777570838 | 27.78° C | 56% | 1016.8 hPa | 12.95 mm | - | - | - |
| 1777570542 | 27.78° C | 55% | 1016.9 hPa | 12.95 mm | - | - | - |
| 1777570238 | 27.78° C | 55% | 1017 hPa | 12.95 mm | - | - | - |
| 1777569938 | 27.78° C | 56% | 1017 hPa | 12.95 mm | - | - | - |
| 1777569638 | 27.22° C | 57% | 1017.1 hPa | 12.95 mm | - | - | - |
| 1777569341 | 26.67° C | 57% | 1017.1 hPa | 12.95 mm | - | - | - |
| 1777569038 | 27.22° C | 56% | 1017.4 hPa | 12.95 mm | - | - | - |
| 1777568738 | 26.67° C | 58% | 1017.4 hPa | 12.95 mm | - | - | - |
| 1777568438 | 27.22° C | 56% | 1017.5 hPa | 12.95 mm | - | - | - |
| 1777568138 | 26.67° C | 57% | 1017.5 hPa | 12.95 mm | - | - | - |
| 1777567838 | 26.67° C | 62% | 1017.7 hPa | 12.95 mm | - | - | - |
| 1777567538 | 26.11° C | 64% | 1017.7 hPa | 12.95 mm | - | - | - |
| 1777567238 | 26.11° C | 63% | 1017.7 hPa | 12.95 mm | - | - | - |
| 1777566938 | 26.11° C | 65% | 1017.7 hPa | 12.95 mm | - | - | - |
| 1777566638 | 26.11° C | 64% | 1017.8 hPa | 12.95 mm | - | - | - |
| 1777566338 | 26.11° C | 64% | 1018 hPa | 12.95 mm | - | - | - |
| 1777566038 | 25.56° C | 63% | 1017.9 hPa | 12.95 mm | - | - | - |
| 1777565738 | 25° C | 65% | 1017.9 hPa | 12.95 mm | - | - | - |
| 1777565438 | 25.56° C | 67% | 1018.1 hPa | 12.95 mm | - | - | - |
| 1777565138 | 25° C | 67% | 1018.2 hPa | 12.95 mm | - | - | - |
| 1777564838 | 25.56° C | 67% | 1018.1 hPa | 12.95 mm | - | - | - |
| 1777564538 | 25.56° C | 68% | 1018.3 hPa | 12.95 mm | - | - | - |
| 1777564238 | 25° C | 72% | 1018.4 hPa | 12.95 mm | - | - | - |
* Rain since midnight (hover to see other rain measurements)
** Current wind speed in m/s (hover to see current wind gust speed)